www.pogodaiklimat.ru

Погода и климат >> Архив погоды >> Боливия >> Рурренабаке


ПОГОДА в Рурренабаке

  • Прогноз погоды в Рурренабаке
  • Монитор погоды в Рурренабаке

АРХИВ ПОГОДЫ в Рурренабаке

Время (UTC), дата Ветер
(напр.,м/с)
 
Видим.   Явления Облачность Т
(С)
Тd
(С)
f
(%)
Тe
(С)
Тes
(С)
Комфортность P
(гПа)
Po
(гПа)
Тmin
(С)
Tmax
(С)
R
(мм)
R24
(мм)
S
(см)
12 13.06 штиль 0 5000 м дымка {туман} 5/5 500 м
[Sc Ac trans Ci fib]
+22.3 +22.0 98 +30 +31 очень
душно
1012.3 989.4 +20.5
15 13.06 штиль 0 20 км 5/1 500 м
[Cu hum Ac trans Ci fib]
+28.3 +24.4 79 +40 +51 опасность
солнечного
удара
1014.0 991.1
18 13.06 С 2 20 км 6/6 500 м
[Cu med, cong Ac trans Ci fib]
+30.0 +24.6 73 +43 +47 опасность
перегрева
1011.3 988.5
21 13.06 СЗ 2 20 км 9/9 500 м
[Sc Ac trans]
+28.3 +24.6 80 +40 +40 очень
душно
1010.5 987.0 +30.3
12 14.06 штиль 0 20 км 8/4 500 м
[Cu hum Ac trans Ci fib]
+24.0 +23.7 98 +33 +33 очень
душно
1012.3 989.5 +23.1
15 14.06 СЗ 3 8000 м слаб. дождь 10/6 450 м
[Cu med, cong As op]
+24.9 +24.6 98 +35 +36 очень
душно
1013.1 990.7
18 14.06 СЗ 3 20 км 9/6 500 м
[Sc diur, vesp Ac trans]
+28.0 +25.4 86 +41 +43 опасность
перегрева
1011.3 988.4
21 14.06 СЗ 2 8000 м осадки на расстоянии {ливн. осадки} 9/4 600 м
[Sc Ac trans Ci]
+26.1 +23.8 87 +36 +36 очень
душно
1009.7 986.8 +28.1
12 15.06 С 2 8000 м осадки на расстоянии 10/6 500 м
[Sc Ac trans Cs]
+23.0 +22.7 98 +32 +32 очень
душно
1012.3 989.2 +22.8 15
15 15.06 З 2 20 км 10/6 500 м
[Sc Ac trans Cs]
+25.1 +24.2 95 +35 +37 очень
душно
1013.7 990.6
18 15.06 штиль 0 20 км 10/6 450 м
[Cu med, cong As op]
+27.0 +24.6 87 +38 +39 очень
душно
1012.6 988.8
21 15.06 штиль 0 20 км 9/4 500 м
[Cb calv Ac trans Ci fib]
+27.0 +24.9 88 +39 +39 очень
душно
1010.5 987.1 +27.6
12 16.06 штиль 0 20 км 5/1 450 м
[Cu hum Ac trans Ci fib]
+23.1 +22.8 98 +32 +33 очень
душно
1014.3 991.6 +21.7 5
15 16.06 Ю 2 4000 м слаб. дождь туман 10/8 500 м
[Cu med, cong As op]
+24.8 +24.7 99 +35 +35 очень
душно
1016.2 993.6
18 16.06 штиль 0 20 км 8/3 500 м
[Cb calv Ac trans Ci fib]
+25.3 +23.8 91 +34 +41 очень
душно
1015.2 991.8 9
21 16.06 штиль 0 20 км 9/5 600 м
[Cu hum Ac trans Ci fib]
+25.0 +23.8 93 +34 +35 очень
душно
1013.2 989.8 +26.1
12 17.06 штиль 0 20 км 9/0 2000 м
[Ac trans Ci fib]
+21.2 +20.9 98 +27 +27 душно 1016.4 993.1 +20.7 9
15 17.06 штиль 0 20 км 4/0 2000 м
[Ac trans Ci]
+27.0 +23.5 81 +37 +49 очень
душно
1017.5 994.4
18 17.06 СВ 2 20 км 5/5 500 м
[Cu hum Ac trans Ci fib]
+30.0 +24.6 73 +43 +49 опасность
перегрева
1014.2 991.5
21 17.06 штиль 0 20 км 4/4 600 м
[Cu hum]
+30.3 +25.0 73 +43 +44 опасность
перегрева
1012.1 989.2 +30.5
12 18.06 штиль 0 20 км 8/8 300 м
[Sc Ac trans]
+22.6 +21.9 96 +30 +31 очень
душно
1013.2 990.6 +20.9
15 18.06 штиль 0 20 км 6/6 450 м
[Cu hum]
+28.0 +24.7 82 +40 +46 очень
душно
1014.3 991.2
18 18.06 СЗ 2 20 км 6/6 600 м
[Cu med, cong Ci fib]
+30.5 +25.5 75 +45 +50 опасность
перегрева
1011.4 988.5
21 18.06 С 2 20 км 5/3 600 м
[Sc diur, vesp Ci]
+30.0 +25.0 75 +43 +44 опасность
перегрева
1009.9 987.2 +31.2
12 19.06 штиль 0 20 км 9/1 750 м
[Sc Ac trans Ci]
+22.1 +21.8 98 +29 +30 очень
душно
1014.2 991.3 +20.8
15 19.06 штиль 0 20 км 9/4 600 м
[Cu med, cong Ci]
+28.9 +24.8 79 +41 +49 опасность
перегрева
1015.5 992.6
18 19.06 З 2 7000 м осадки на расстоянии {ливн. осадки} 8/8 500 м
[Cb calv Ci fib]
+29.1 +25.0 79 +42 +44 опасность
перегрева
1014.3 991.1
21 19.06 З 2 20 км 8/8 500 м
[Cu hum Ac trans Ci fib]
+27.0 +25.0 89 +39 +39 очень
душно
1013.2 989.9 +29.9

 

Местоположение метеостанции Рурренабаке (Боливия): широта -14.46 долгота -67.56 высота над уровнем моря 204 м.

В архиве по умолчанию представлена погода в Рурренабаке за последнюю неделю. Архивные данные за месяц целиком и за предыдущие месяцы, начиная с января 2011 года, Вы можете получить, выбрав интересующий диапазон дат из раскрывающегося списка и нажав кнопку "Ввод!".


*Определитесь, кто Вы:
робот инопланетянин человек

Внимание! Время в таблицах - всемирное. Для получения местного времени необходимо прибавить поправку, которая равна -4 ч.

Смотрите также архив погоды в соседних городах и на ближайших метеорологических станциях:

Погода в Рейесе (Боливия) (26 км)
Погода в Санта-Розе (Боливия) (78 км)
Погода в Сан-Борхе (Боливия) (87 км)
Погода в Сан Игнасио де Moксосе (Боливия) (217 км)
Погода в Овежуйо (Боливия) (235 км)
Погода в Ла-Пасе (Боливия) (238 км)
Погода в Санта-Ане (Боливия) (243 км)
Погода в Бауресе (Боливия) (243 км)
Погода в Пуэрто Мальдонадо (Перу) (273 км)
Погода в Тринидаде (Боливия) (288 км)

Пояснения к столбцам:

Ветер - указаны скорость ветра в м/с - средняя за 10 мин, порывы в срок и между сроками (в фигурных скобках) и направление, откуда дует ветер: С - северный, СВ - северо-восточный, В - восточный, ЮВ - юго-восточный, Ю - южный, ЮЗ - юго-западный, З - западный, СЗ - северо-западный.
Видимость - горизонтальная дальность видимости в метрах или километрах. При видимости от 1 до 10 км при отсутствии осадков обычно наблюдается дымка, при ухудшении видимости до 1 км и менее - туман. В сухую погоду видимость может ухудшаться дымом, пылью или мглою.
Явления - указаны атмосферные явления, наблюдавшиеся в срок или в последний час перед сроком; фигурными скобками обозначены явления, наблюдавшиеся между сроками (за 1-3 часа до срока); квадратными скобками обозначены град или гололедные отложения с указанием их диаметра в мм.
Облачность - указаны через наклонную черту общая и нижняя облачность в баллах и высота нижней границы облаков в метрах; квадратными скобками обозначены формы облаков: Ci - перистые, Cs - перисто-слоистые, Cc - перисто-кучевые, Ac - высококучевые, As - высокослоистые, Sc - слоисто-кучевые, Ns - слоисто-дождевые, Cu - кучевые, Cb - кучево-дождевые. Подробнее классификацию облаков см. в Атласе облаков (PDF).
T - Температура воздуха - температура, измеренная на высоте 2 м над землей.
Td - Температура точки росы - температура, при понижении до которой содержащийся в воздухе водяной пар достигнет насыщения.
f - Относительная влажность воздуха - влажноcть воздуха, измеренная на высоте 2 м над землей.
Te - Эффективная температура - температура, которую ощущает одетый по сезону человек в тени. Характеристика душности погоды. При расчете учитывается влияние влажности воздуха и скорости ветра на теплоощущения человека.
Tes - Эффективная температура на солнце - температура, которую ощущает человек, с поправкой на солнечный нагрев. Характеристика знойности погоды. Зависит от высоты солнца над горизонтом, облачности и скорости ветра. Ночью, в пасмурную погоду, а также при ветре 12 м/с и более поправка равна нулю.
P - Атмосферное давление - приведенное к уровню моря атмосферное давление.
Po - Атмосферное давление - измеренное на уровне метеостанции атмосферное давление.
Tmin - Минимальная температура - минимум температуры воздуха на высоте 2 м над землей.
Tmax - Максимальная температура - максимум температуры воздуха на высоте 2 м над землей.
R - Количество осадков - Количество выпавших осадков за период времени, мм. При наведении курсора мыши на число - период времени, за который выпало указанное количество осадков.
R24 - Количество осадков - Количество выпавших осадков за 24 часа, мм.
S - Снежный покров - Высота снежного покрова, см. При наведении курсора мыши на число - состояние снежного покрова и степень покрытия местности в баллах.